Flag for U.S.A. Weather past 2 weeks in Evansville, Indiana, U.S.A.

Now
34 °F

Passing clouds.


Feels Like: 29 °F
Forecast: 28 / 38 °F
Wind: 6 mph from Northwest

Location: Evansville Regional Airport

Current Time: Jan 30, 2015 at 6:28:27 AM

Latest Report: Jan 30, 2015 at 5:54 AM


Visibility: 10 mi

Pressure: 30.46 "Hg

Humidity: 59%

Dew point: 21 °F

Location of EvansvilleLocation

Historic Weather in Evansville — Graph

°F

Evansville temperature yesterday

Maximum temperature yesterday: 53 °F (at 8:54 AM)
Minimum temperature yesterday: 37 °F (at 9:54 PM)
Average temperature yesterday: 44 °F

Past Weeks' High & Low Weather Summary

 TemperatureHumidityPressure
High56 °F (Jan 20, 1:54 PM)93% (Jan 18, 12:54 AM)30.47 "Hg (Jan 18, 12:54 AM)
Low25 °F (Jan 16, 3:54 AM)38% (Jan 18, 2:54 PM)29.60 "Hg (Jan 25, 1:54 PM)
Average38 °F71%30.07 "Hg
* Reported Jan 15 4:54 AM — Jan 30 4:54 AM, Evansville, Weather by CustomWeather, © 2014

Note: Actual official high and low records may vary slightly from our data, if they occured in-between our weather recording intervals... More about our weather records

Advertising

Evansville weather history for previous 24 hours

 ConditionsComfort  
Time TempWeatherWind HumidityBarometerVisibility
4:54 AM
Jan 30
35 °FOvercast.14 mph56%30.44 "Hg10 mi
3:54 AM36 °FMostly cloudy.10 mph62%30.43 "Hg10 mi
2:54 AM36 °FOvercast.12 mph62%30.41 "Hg10 mi
1:54 AM36 °FOvercast.10 mph70%30.40 "Hg10 mi
12:54 AM36 °FOvercast.8 mph73%30.38 "Hg10 mi
11:54 PM
Jan 29
37 °FOvercast.10 mph73%30.37 "Hg10 mi
10:54 PM37 °FOvercast.7 mph79%30.37 "Hg10 mi
9:54 PM37 °FOvercast.9 mph79%30.34 "Hg10 mi
8:54 PM38 °FOvercast.8 mph79%30.33 "Hg10 mi
7:54 PM39 °FMostly cloudy.10 mph79%30.30 "Hg10 mi
7:03 PM39 °FMostly cloudy.9 mph82%30.28 "Hg10 mi
6:54 PM39 °FLight rain. Mostly cloudy.10 mph82%30.27 "Hg9 mi
5:54 PM40 °FOvercast.12 mph73%30.24 "Hg10 mi
4:54 PM40 °FMostly cloudy.8 mph70%30.21 "Hg10 mi
3:54 PM41 °FOvercast.17 mph67%30.18 "Hg10 mi
2:54 PM41 °FMostly cloudy.7 mph70%30.14 "Hg10 mi
1:54 PM42 °FOvercast.10 mph68%30.11 "Hg10 mi
12:54 PM43 °FMostly cloudy.9 mph71%30.09 "Hg10 mi
11:54 AM44 °FOvercast.15 mph71%30.08 "Hg10 mi
10:54 AM46 °FMostly cloudy.16 mph68%30.05 "Hg8 mi
9:54 AM50 °FMostly cloudy.14 mph63%30.01 "Hg10 mi
8:54 AM53 °FPartly sunny.18 mph61%29.95 "Hg10 mi
7:54 AM49 °FSunny.12 mph64%29.90 "Hg10 mi
6:54 AM50 °FSunny.16 mph59%29.87 "Hg10 mi
Weather by CustomWeather, © 2014

See weather overviewHow to use our weather pages